Location: Sungai Jaoh
(2.9167°N, 113.9167°E)
Time: 15:07:24
(UTC+00:00)

Cosmos 2184 Rocket - Pass Details

Date: 30 November 2020
Orbit: 958 x 1003 km, 82.9° (Epoch: 25 January)

Event Time Altitude Azimuth Distance (km) Brightness Sun altitude
Rises 21:42:37 0° 199° (SSW) 3,661 7.1 -8.2°
Reaches altitude 10° 21:45:16 10° 206° (SSW) 2,719 6.3 -7.6°
Maximum altitude 21:51:01 40° 273° (W) 1,414 4.5 -6.3°
Drops below altitude 10° 21:56:51 10° 341° (NNW) 2,741 6.0 -4.9°
Sets 21:59:32 0° 349° (N) 3,694 6.7 -4.3°
